{"data":{"norad_id":60734,"intl_designator":"2024-152Q","name":"STARLINK-32179","alt_names":[],"object_type":"PAYLOAD","status":"ACTIVE","operator":null,"country":"US","launch_date":"2024-08-28","launch_site_code":"AFETR","launch_vehicle":null,"mission":null,"orbit_class":"UNKNOWN","rcs_meters":null,"size_class":null,"mass_kg":null,"dimensions":null,"purposes":["comms"],"wikipedia_slug":null,"has_3d_model":false,"image_url":null,"decayed_at":null,"tle_current":{"epoch":"2026-05-24T18:28:36.863040Z","epoch_age_seconds":91401,"freshness":"FRESH","line1":"1 60734U 24152Q   26144.76987110 -.00003473  00000+0 -10515-3 0  9993","line2":"2 60734  53.1600 275.4301 0000974  82.2377 277.8735 15.30213627 98363","mean_motion":15.30213627,"eccentricity":9.74e-5,"inclination_deg":53.16,"raan_deg":275.4301,"arg_perigee_deg":82.2377,"mean_anomaly_deg":277.8735,"bstar":-0.00010515,"rev_number":9836,"period_min":94.10450767081,"perigee_km":474.50686942695,"apogee_km":475.84189448416,"semimajor_km":6853.3113819556,"source":"CELESTRAK","updated_at":"2026-05-25T13:38:19.310557Z"}}}